Weather History for Farmington, MO

Change the Weather History Date:

Sunday, March 4, 2012

  Actual Average Record
Temperature  
Mean Temperature 38 °F -  
Max Temperature 53 °F 48 °F 66 °F (1997)
Min Temperature 24 °F 29 °F 6 °F (2002)
Degree Days  
Heating Degree Days 26    
Moisture  
Dew Point 21 °F    
Average Humidity 53    
Maximum Humidity 86    
Minimum Humidity 28    
Precipitation  
Precipitation 0.00 in - - ()
Sea Level Pressure  
Sea Level Pressure 29.91 in    
Wind  
Wind Speed 3 mph (WNW)    
Max Wind Speed 15 mph    
Max Gust Speed 21 mph    
Visibility 10 miles    
Events      
Averages and records for this station are not official NWS values.
T = Trace of Precipitation, MM = Missing Value Source: NWS Daily Summary

Daily Weather History Graph

Daily Weather History Graph

Search for Another Location

Airport:

Trip Planner

Search our weather history database for the weather conditions in past years. The results will help you decide how hot, cold, wet, or windy it might be!

Date:

Astronomy

Mar. 04, 2012 Rise Set
Actual Time 6:28 AM CST 5:58 PM CST
Civil Twilight 6:02 AM CST 6:25 PM CST
Nautical Twilight 5:31 AM CST 6:55 PM CST
Astronomical Twilight 5:01 AM CST 7:25 PM CST
Moon 2:14 PM CST (3/4) 3:44 AM CST (3/4)
Length of Visible Light 12h 23m
Length of Day
11h 30m
Waxing Gibbous, 84% of the Moon is Illuminated
Mar 4
Waxing Gibbous
Mar 8
Full
Mar 14
Last Quarter
Mar 22
New
Mar 30
First Quarter

Hourly Weather History & Observations

Time (CST) Temp. Windchill Dew Point Humidity Pressure Visibility Wind Dir Wind Speed Gust Speed Precip Events Conditions
12:15 AM 30.2 °F - 17.6 °F 60% 29.93 in 10.0 mi Calm Calm - N/A   Clear
12:35 AM 30.2 °F - 17.6 °F 60% 29.93 in 10.0 mi Calm Calm - N/A   Clear
12:55 AM 28.4 °F - 19.4 °F 69% 29.93 in 10.0 mi Calm Calm - N/A   Clear
1:15 AM 26.6 °F - 19.4 °F 74% 29.93 in 10.0 mi Calm Calm - N/A   Clear
1:35 AM 26.6 °F - 19.4 °F 74% 29.93 in 10.0 mi Calm Calm - N/A   Clear
1:55 AM 28.4 °F - 19.4 °F 69% 29.92 in 10.0 mi Calm Calm - N/A   Clear
2:15 AM 28.4 °F - 19.4 °F 69% 29.92 in 10.0 mi Calm Calm - N/A   Clear
2:35 AM 26.6 °F - 17.6 °F 69% 29.93 in 10.0 mi Calm Calm - N/A   Mostly Cloudy
2:55 AM 24.8 °F - 19.4 °F 80% 29.92 in 10.0 mi Calm Calm - N/A   Mostly Cloudy
3:15 AM 26.6 °F - 19.4 °F 74% 29.92 in 10.0 mi Calm Calm - N/A   Clear
3:35 AM 24.8 °F - 17.6 °F 74% 29.92 in 10.0 mi Calm Calm - N/A   Partly Cloudy
3:55 AM 24.8 °F - 19.4 °F 80% 29.92 in 10.0 mi Calm Calm - N/A   Partly Cloudy
4:15 AM 24.8 °F - 19.4 °F 80% 29.92 in 10.0 mi Calm Calm - N/A   Partly Cloudy
4:35 AM 24.8 °F - 19.4 °F 80% 29.92 in 10.0 mi Calm Calm - N/A   Scattered Clouds
4:55 AM 24.8 °F - 19.4 °F 80% 29.92 in 10.0 mi Calm Calm - N/A   Overcast
5:15 AM 24.8 °F - 19.4 °F 80% 29.93 in 10.0 mi Calm Calm - N/A   Mostly Cloudy
5:35 AM 26.6 °F - 21.2 °F 80% 29.94 in 10.0 mi Calm Calm - N/A   Overcast
5:55 AM 26.6 °F 22.6 °F 19.4 °F 74% 29.94 in 10.0 mi WSW 3.5 mph - N/A   Overcast
6:15 AM 26.6 °F 22.6 °F 21.2 °F 80% 29.94 in 10.0 mi SSW 3.5 mph - N/A   Overcast
6:35 AM 26.6 °F - 23.0 °F 86% 29.94 in 10.0 mi Calm Calm - N/A   Overcast
6:55 AM 28.4 °F - 19.4 °F 69% 29.95 in 10.0 mi Calm Calm - N/A   Mostly Cloudy
7:15 AM 28.4 °F - 19.4 °F 69% 29.95 in 10.0 mi Calm Calm - N/A   Mostly Cloudy
7:35 AM 30.2 °F 26.7 °F 21.2 °F 69% 29.95 in 10.0 mi West 3.5 mph - N/A   Overcast
7:55 AM 30.2 °F - 26.6 °F 86% 29.96 in 10.0 mi Calm Calm - N/A   Partly Cloudy
8:15 AM 35.6 °F 30.7 °F 21.2 °F 56% 29.97 in 10.0 mi West 5.8 mph - N/A   Clear
8:35 AM 37.4 °F 31.4 °F 21.2 °F 52% 29.96 in 10.0 mi West 8.1 mph - N/A   Clear
8:55 AM 39.2 °F 33.6 °F 19.4 °F 45% 29.97 in 10.0 mi West 8.1 mph - N/A   Clear
9:15 AM 41.0 °F 35.2 °F 19.4 °F 42% 29.97 in 10.0 mi West 9.2 mph - N/A   Clear
9:35 AM 42.8 °F 38.6 °F 19.4 °F 39% 29.97 in 10.0 mi West 6.9 mph - N/A   Clear
9:55 AM 42.8 °F 37.5 °F 19.4 °F 39% 29.97 in 10.0 mi West 9.2 mph - N/A   Clear
10:15 AM 44.6 °F 41.4 °F 21.2 °F 39% 29.96 in 10.0 mi NW 5.8 mph - N/A   Clear
10:35 AM 46.4 °F 41.9 °F 21.2 °F 37% 29.96 in 10.0 mi NW 9.2 mph - N/A   Clear
10:55 AM 48.2 °F - 21.2 °F 34% 29.95 in 10.0 mi WNW 15.0 mph 20.7 mph N/A   Clear
11:15 AM 48.2 °F - 21.2 °F 34% 29.95 in 10.0 mi WNW 12.7 mph 18.4 mph N/A   Scattered Clouds
11:35 AM 48.2 °F - 21.2 °F 34% 29.95 in 10.0 mi WNW 8.1 mph - N/A   Mostly Cloudy
11:55 AM 48.2 °F - 21.2 °F 34% 29.94 in 10.0 mi West 9.2 mph - N/A   Mostly Cloudy
12:15 PM 48.2 °F - 19.4 °F 32% 29.93 in 10.0 mi West 10.4 mph 16.1 mph N/A   Overcast
12:35 PM 48.2 °F - 21.2 °F 34% 29.92 in 10.0 mi WSW 8.1 mph - N/A   Overcast
12:55 PM 50.0 °F - 23.0 °F 35% 29.91 in 10.0 mi West 4.6 mph - N/A   Overcast
1:15 PM 50.0 °F - 21.2 °F 32% 29.90 in 10.0 mi WNW 5.8 mph - N/A   Overcast
1:35 PM 51.8 °F - 23.0 °F 33% 29.87 in 10.0 mi Calm Calm - N/A   Overcast
1:55 PM 51.8 °F - 21.2 °F 30% 29.87 in 10.0 mi Calm Calm - N/A   Overcast
2:15 PM 51.8 °F - 21.2 °F 30% 29.86 in 10.0 mi SE 3.5 mph - N/A   Overcast
2:35 PM 53.6 °F - 21.2 °F 28% 29.85 in 10.0 mi West 8.1 mph - N/A   Overcast
2:55 PM 53.6 °F - 21.2 °F 28% 29.85 in 9.0 mi West 11.5 mph - N/A   Overcast
3:15 PM 53.6 °F - 21.2 °F 28% 29.84 in 10.0 mi North 6.9 mph - N/A   Overcast
3:35 PM 51.8 °F - 23.0 °F 33% 29.84 in 10.0 mi NE 8.1 mph - N/A   Overcast
3:55 PM 50.0 °F - 24.8 °F 37% 29.84 in 10.0 mi ENE 8.1 mph - N/A   Overcast
4:15 PM 50.0 °F - 24.8 °F 37% 29.84 in 10.0 mi ENE 9.2 mph - N/A   Overcast
4:35 PM 48.2 °F - 24.8 °F 40% 29.84 in 10.0 mi East 9.2 mph - N/A   Overcast
4:55 PM 48.2 °F - 24.8 °F 40% 29.84 in 10.0 mi ENE 8.1 mph - N/A   Overcast
5:15 PM 48.2 °F - 24.8 °F 40% 29.85 in 10.0 mi East 8.1 mph - N/A   Overcast
5:35 PM 48.2 °F - 24.8 °F 40% 29.84 in 10.0 mi East 4.6 mph - N/A   Overcast
5:55 PM 46.4 °F 44.3 °F 24.8 °F 43% 29.85 in 10.0 mi East 4.6 mph - N/A   Overcast
6:15 PM 44.6 °F 40.7 °F 24.8 °F 46% 29.85 in 10.0 mi East 6.9 mph - N/A   Overcast
6:35 PM 44.6 °F - 26.6 °F 49% 29.85 in 10.0 mi Calm Calm - N/A   Overcast
6:55 PM 44.6 °F - 26.6 °F 49% 29.85 in 10.0 mi Calm Calm - N/A   Overcast
7:15 PM 42.8 °F - 28.4 °F 57% 29.86 in 10.0 mi Calm Calm - N/A   Overcast
7:35 PM 42.8 °F - 28.4 °F 57% 29.86 in 10.0 mi Calm Calm - N/A   Mostly Cloudy
7:55 PM 44.6 °F 42.2 °F 26.6 °F 49% 29.89 in 10.0 mi NNW 4.6 mph 17.3 mph N/A   Mostly Cloudy
8:15 PM 42.8 °F 39.3 °F 26.6 °F 53% 29.91 in 10.0 mi North 5.8 mph - N/A   Mostly Cloudy
8:35 PM 42.8 °F 36.6 °F 26.6 °F 53% 29.95 in 10.0 mi NNW 11.5 mph 17.3 mph N/A   Overcast
8:55 PM 42.8 °F 37.5 °F 28.4 °F 57% 29.96 in 10.0 mi North 9.2 mph - N/A   Mostly Cloudy
9:15 PM 42.8 °F 38.6 °F 28.4 °F 57% 29.96 in 10.0 mi NNW 6.9 mph - N/A   Overcast
9:55 PM 41.0 °F 34.3 °F 28.4 °F 61% 29.98 in 10.0 mi WNW 11.5 mph - N/A   Partly Cloudy
10:15 PM 41.0 °F 33.9 °F 28.4 °F 61% 29.98 in 10.0 mi WNW 12.7 mph 17.3 mph N/A   Clear
10:35 PM 41.0 °F 33.9 °F 28.4 °F 61% 29.99 in 10.0 mi NW 12.7 mph 23.0 mph N/A   Clear
11:15 PM 41.0 °F 32.5 °F 28.4 °F 61% 30.02 in 10.0 mi NNW 17.3 mph 23.0 mph N/A   Scattered Clouds
11:35 PM 39.2 °F 30.5 °F 28.4 °F 65% 30.03 in 10.0 mi NNW 16.1 mph 21.9 mph N/A   Partly Cloudy
11:55 PM 39.2 °F 29.0 °F 24.8 °F 56% 30.05 in 10.0 mi NW 21.9 mph 31.1 mph N/A   Mostly Cloudy